Year,Month,Day,Hour,Minute,Value (Times are PST for temperature in C)
2019,07,06,00,00,16.20
2019,07,06,00,01,16.20
2019,07,06,00,02,16.20
2019,07,06,00,03,16.20
2019,07,06,00,04,16.20
2019,07,06,00,05,16.20
2019,07,06,00,06,16.20
2019,07,06,00,07,16.20
2019,07,06,00,08,16.20
2019,07,06,00,09,16.20
2019,07,06,00,10,16.10
2019,07,06,00,11,16.10
2019,07,06,00,12,16.10
2019,07,06,00,13,16.10
2019,07,06,00,14,16.10
2019,07,06,00,15,16.10
2019,07,06,00,16,16.10
2019,07,06,00,17,16.10
2019,07,06,00,18,16.10
2019,07,06,00,19,16.10
2019,07,06,00,20,16.10
2019,07,06,00,21,16.10
2019,07,06,00,22,16.10
2019,07,06,00,23,16.10
2019,07,06,00,24,16.10
2019,07,06,00,25,16.10
2019,07,06,00,26,16.10
2019,07,06,00,27,16.10
2019,07,06,00,28,16.10
2019,07,06,00,29,16.10
2019,07,06,00,30,16.10
2019,07,06,00,31,16.10
2019,07,06,00,32,16.10
2019,07,06,00,33,16.10
2019,07,06,00,34,16.10
2019,07,06,00,35,16.10
2019,07,06,00,36,16.00
2019,07,06,00,37,16.00
2019,07,06,00,38,16.00
2019,07,06,00,39,16.00
2019,07,06,00,40,16.00
2019,07,06,00,41,16.00
2019,07,06,00,42,16.00
2019,07,06,00,43,16.00
2019,07,06,00,44,16.00
2019,07,06,00,45,16.00
2019,07,06,00,46,16.00
2019,07,06,00,47,16.00
2019,07,06,00,48,16.00
2019,07,06,00,49,16.00
2019,07,06,00,50,16.00
2019,07,06,00,51,16.00
2019,07,06,00,52,16.00
2019,07,06,00,53,16.00
2019,07,06,00,54,16.00
2019,07,06,00,55,15.90
2019,07,06,00,56,15.90
2019,07,06,00,57,15.90
2019,07,06,00,58,15.90
2019,07,06,00,59,15.90
2019,07,06,01,00,15.90
2019,07,06,01,01,15.90
2019,07,06,01,02,15.80
2019,07,06,01,03,15.80
2019,07,06,01,04,15.80
2019,07,06,01,05,15.80
2019,07,06,01,06,15.80
2019,07,06,01,07,15.80
2019,07,06,01,08,15.80
2019,07,06,01,09,15.80
2019,07,06,01,10,15.80
2019,07,06,01,11,15.80
2019,07,06,01,12,15.80
2019,07,06,01,13,15.80
2019,07,06,01,14,15.70
2019,07,06,01,15,15.70
2019,07,06,01,16,15.70
2019,07,06,01,17,15.70
2019,07,06,01,18,15.70
2019,07,06,01,19,15.80
2019,07,06,01,20,15.70
2019,07,06,01,21,15.70
2019,07,06,01,22,15.70
2019,07,06,01,23,15.70
2019,07,06,01,24,15.70
2019,07,06,01,25,15.70
2019,07,06,01,26,15.70
2019,07,06,01,27,15.70
2019,07,06,01,28,15.70
2019,07,06,01,29,15.70
2019,07,06,01,30,15.70
2019,07,06,01,31,15.70
2019,07,06,01,32,15.70
2019,07,06,01,33,15.70
2019,07,06,01,34,15.70
2019,07,06,01,35,15.70
2019,07,06,01,36,15.70
2019,07,06,01,37,15.70
2019,07,06,01,38,15.70
2019,07,06,01,39,15.70
2019,07,06,01,40,15.70
2019,07,06,01,41,15.70
2019,07,06,01,42,15.70
2019,07,06,01,43,15.70
2019,07,06,01,44,15.70
2019,07,06,01,45,15.60
2019,07,06,01,46,15.70
2019,07,06,01,47,15.60
2019,07,06,01,48,15.60
2019,07,06,01,49,15.60
2019,07,06,01,50,15.60
2019,07,06,01,51,15.60
2019,07,06,01,52,15.60
2019,07,06,01,53,15.60
2019,07,06,01,54,15.60
2019,07,06,01,55,15.60
2019,07,06,01,56,15.60
2019,07,06,01,57,15.60
2019,07,06,01,58,15.60
2019,07,06,01,59,15.60
2019,07,06,02,00,15.60
2019,07,06,02,01,15.60
2019,07,06,02,02,15.60
2019,07,06,02,03,15.60
2019,07,06,02,04,15.60
2019,07,06,02,05,15.60
2019,07,06,02,06,15.60
2019,07,06,02,07,15.60
2019,07,06,02,08,15.60
2019,07,06,02,09,15.60
2019,07,06,02,10,15.60
2019,07,06,02,11,15.60
2019,07,06,02,12,15.60
2019,07,06,02,13,15.60
2019,07,06,02,14,15.60
2019,07,06,02,15,15.60
2019,07,06,02,16,15.60
2019,07,06,02,17,15.60
2019,07,06,02,18,15.60
2019,07,06,02,19,15.60
2019,07,06,02,20,15.60
2019,07,06,02,21,15.60
2019,07,06,02,22,15.60
2019,07,06,02,23,15.50
2019,07,06,02,24,15.50
2019,07,06,02,25,15.50
2019,07,06,02,26,15.50
2019,07,06,02,27,15.50
2019,07,06,02,28,15.50
2019,07,06,02,29,15.50
2019,07,06,02,30,15.50
2019,07,06,02,31,15.50
2019,07,06,02,32,15.50
2019,07,06,02,33,15.50
2019,07,06,02,34,15.50
2019,07,06,02,35,15.50
2019,07,06,02,36,15.50
2019,07,06,02,37,15.50
2019,07,06,02,38,15.50
2019,07,06,02,39,15.50
2019,07,06,02,40,15.50
2019,07,06,02,41,15.50
2019,07,06,02,42,15.50
2019,07,06,02,43,15.50
2019,07,06,02,44,15.50
2019,07,06,02,45,15.50
2019,07,06,02,46,15.50
2019,07,06,02,47,15.50
2019,07,06,02,48,15.50
2019,07,06,02,49,15.50
2019,07,06,02,50,15.50
2019,07,06,02,51,15.50
2019,07,06,02,52,15.40
2019,07,06,02,53,15.40
2019,07,06,02,54,15.40
2019,07,06,02,55,15.50
2019,07,06,02,56,15.50
2019,07,06,02,57,15.50
2019,07,06,02,58,15.50
2019,07,06,02,59,15.50
2019,07,06,03,00,15.50
2019,07,06,03,01,15.50
2019,07,06,03,02,15.50
2019,07,06,03,03,15.50
2019,07,06,03,04,15.50
2019,07,06,03,05,15.50
2019,07,06,03,06,15.50
2019,07,06,03,07,15.50
2019,07,06,03,08,15.50
2019,07,06,03,09,15.50
2019,07,06,03,10,15.40
2019,07,06,03,11,15.50
2019,07,06,03,12,15.40
2019,07,06,03,13,15.40
2019,07,06,03,14,15.40
2019,07,06,03,15,15.40
2019,07,06,03,16,15.40
2019,07,06,03,17,15.40
2019,07,06,03,18,15.40
2019,07,06,03,19,15.40
2019,07,06,03,20,15.40
2019,07,06,03,21,15.40
2019,07,06,03,22,15.40
2019,07,06,03,23,15.40
2019,07,06,03,24,15.40
2019,07,06,03,25,15.40
2019,07,06,03,26,15.40
2019,07,06,03,27,15.40
2019,07,06,03,28,15.40
2019,07,06,03,29,15.40
2019,07,06,03,30,15.30
2019,07,06,03,31,15.30
2019,07,06,03,32,15.30
2019,07,06,03,33,15.30
2019,07,06,03,34,15.30
2019,07,06,03,35,15.30
2019,07,06,03,36,15.30
2019,07,06,03,37,15.30
2019,07,06,03,38,15.30
2019,07,06,03,39,15.30
2019,07,06,03,40,15.30
2019,07,06,03,41,15.30
2019,07,06,03,42,15.30
2019,07,06,03,43,15.40
2019,07,06,03,44,15.40
2019,07,06,03,45,15.40
2019,07,06,03,46,15.40
2019,07,06,03,47,15.40
2019,07,06,03,48,15.40
2019,07,06,03,49,15.40
2019,07,06,03,50,15.40
2019,07,06,03,51,15.40
2019,07,06,03,52,15.40
2019,07,06,03,53,15.40
2019,07,06,03,54,15.40
2019,07,06,03,55,15.40
2019,07,06,03,56,15.40
2019,07,06,03,57,15.40
2019,07,06,03,58,15.40
2019,07,06,03,59,15.40
2019,07,06,04,00,15.40
2019,07,06,04,01,15.40
2019,07,06,04,02,15.40
2019,07,06,04,03,15.40
2019,07,06,04,04,15.40
2019,07,06,04,05,15.40
2019,07,06,04,06,15.40
2019,07,06,04,07,15.40
2019,07,06,04,08,15.40
2019,07,06,04,09,15.40
2019,07,06,04,10,15.40
2019,07,06,04,11,15.40
2019,07,06,04,12,15.40
2019,07,06,04,13,15.40
2019,07,06,04,14,15.40
2019,07,06,04,15,15.40
2019,07,06,04,16,15.40
2019,07,06,04,17,15.40
2019,07,06,04,18,15.40
2019,07,06,04,19,15.40
2019,07,06,04,20,15.40
2019,07,06,04,21,15.40
2019,07,06,04,22,15.30
2019,07,06,04,23,15.30
2019,07,06,04,24,15.40
2019,07,06,04,25,15.30
2019,07,06,04,26,15.30
2019,07,06,04,27,15.40
2019,07,06,04,28,15.30
2019,07,06,04,29,15.30
2019,07,06,04,30,15.40
2019,07,06,04,31,15.40
2019,07,06,04,32,15.40
2019,07,06,04,33,15.40
2019,07,06,04,34,15.40
2019,07,06,04,35,15.40
2019,07,06,04,36,15.40
2019,07,06,04,37,15.40
2019,07,06,04,38,15.30
2019,07,06,04,39,15.40
2019,07,06,04,40,15.30
2019,07,06,04,41,15.30
2019,07,06,04,42,15.30
2019,07,06,04,43,15.30
2019,07,06,04,44,15.30
2019,07,06,04,45,15.30
2019,07,06,04,46,15.30
2019,07,06,04,47,15.40
2019,07,06,04,48,15.40
2019,07,06,04,49,15.40
2019,07,06,04,50,15.40
2019,07,06,04,51,15.40
2019,07,06,04,52,15.40
2019,07,06,04,53,15.40
2019,07,06,04,54,15.40
2019,07,06,04,55,15.30
2019,07,06,04,56,15.40
2019,07,06,04,57,15.40
2019,07,06,04,58,15.40
2019,07,06,04,59,15.40
2019,07,06,05,00,15.40
2019,07,06,05,01,15.40
2019,07,06,05,02,15.40
2019,07,06,05,03,15.40
2019,07,06,05,04,15.40
2019,07,06,05,05,15.40
2019,07,06,05,06,15.40
2019,07,06,05,07,15.40
2019,07,06,05,08,15.40
2019,07,06,05,09,15.40
2019,07,06,05,10,15.40
2019,07,06,05,11,15.40
2019,07,06,05,12,15.40
2019,07,06,05,13,15.40
2019,07,06,05,14,15.40
2019,07,06,05,15,15.40
2019,07,06,05,16,15.40
2019,07,06,05,17,15.40
2019,07,06,05,18,15.40
2019,07,06,05,19,15.40
2019,07,06,05,20,15.40
2019,07,06,05,21,15.40
2019,07,06,05,22,15.40
2019,07,06,05,23,15.40
2019,07,06,05,24,15.40
2019,07,06,05,25,15.40
2019,07,06,05,26,15.40
2019,07,06,05,27,15.40
2019,07,06,05,28,15.40
2019,07,06,05,29,15.40
2019,07,06,05,30,15.40
2019,07,06,05,31,15.40
2019,07,06,05,32,15.40
2019,07,06,05,33,15.40
2019,07,06,05,34,15.40
2019,07,06,05,35,15.40
2019,07,06,05,36,15.40
2019,07,06,05,37,15.40
2019,07,06,05,38,15.40
2019,07,06,05,39,15.40
2019,07,06,05,40,15.40
2019,07,06,05,41,15.30
2019,07,06,05,42,15.30
2019,07,06,05,43,15.30
2019,07,06,05,44,15.30
2019,07,06,05,45,15.30
2019,07,06,05,46,15.30
2019,07,06,05,47,15.30
2019,07,06,05,48,15.30
2019,07,06,05,49,15.30
2019,07,06,05,50,15.30
2019,07,06,05,51,15.30
2019,07,06,05,52,15.30
2019,07,06,05,53,15.30
2019,07,06,05,54,15.30
2019,07,06,05,55,15.30
2019,07,06,05,56,15.30
2019,07,06,05,57,15.30
2019,07,06,05,58,15.30
2019,07,06,05,59,15.30
2019,07,06,06,00,15.30
2019,07,06,06,01,15.30
2019,07,06,06,02,15.30
2019,07,06,06,03,15.30
2019,07,06,06,04,15.30
2019,07,06,06,05,15.30
2019,07,06,06,06,15.30
2019,07,06,06,07,15.30
2019,07,06,06,08,15.30
2019,07,06,06,09,15.30
2019,07,06,06,10,15.30
2019,07,06,06,11,15.40
2019,07,06,06,12,15.40
2019,07,06,06,13,15.40
2019,07,06,06,14,15.40
2019,07,06,06,15,15.40
2019,07,06,06,16,15.30
2019,07,06,06,17,15.40
2019,07,06,06,18,15.40
2019,07,06,06,19,15.30
2019,07,06,06,20,15.30
2019,07,06,06,21,15.30
2019,07,06,06,22,15.30
2019,07,06,06,23,15.40
2019,07,06,06,24,15.30
2019,07,06,06,25,15.30
2019,07,06,06,26,15.30
2019,07,06,06,27,15.30
2019,07,06,06,28,15.30
2019,07,06,06,29,15.30
2019,07,06,06,30,15.30
2019,07,06,06,31,15.30
2019,07,06,06,32,15.30
2019,07,06,06,33,15.30
2019,07,06,06,34,15.20
2019,07,06,06,35,15.20
2019,07,06,06,36,15.20
2019,07,06,06,37,15.20
2019,07,06,06,38,15.20
2019,07,06,06,39,15.20
2019,07,06,06,40,15.20
2019,07,06,06,41,15.20
2019,07,06,06,42,15.20
2019,07,06,06,43,15.20
2019,07,06,06,44,15.20
2019,07,06,06,45,15.20
2019,07,06,06,46,15.20
2019,07,06,06,47,15.20
2019,07,06,06,48,15.20
2019,07,06,06,49,15.20
2019,07,06,06,50,15.20
2019,07,06,06,51,15.20
2019,07,06,06,52,15.20
2019,07,06,06,53,15.20
2019,07,06,06,54,15.20
2019,07,06,06,55,15.20
2019,07,06,06,56,15.20
2019,07,06,06,57,15.20
2019,07,06,06,58,15.20
2019,07,06,06,59,15.20
2019,07,06,07,00,15.20
2019,07,06,07,01,15.20
2019,07,06,07,02,15.20
2019,07,06,07,03,15.20
2019,07,06,07,04,15.20
2019,07,06,07,05,15.20
2019,07,06,07,06,15.20
2019,07,06,07,07,15.20
2019,07,06,07,08,15.20
2019,07,06,07,09,15.20
2019,07,06,07,10,15.20
2019,07,06,07,11,15.20
2019,07,06,07,12,15.20
2019,07,06,07,13,15.20
2019,07,06,07,14,15.20
2019,07,06,07,15,15.20
2019,07,06,07,16,15.20
2019,07,06,07,17,15.20
2019,07,06,07,18,15.20
2019,07,06,07,19,15.20
2019,07,06,07,20,15.20
2019,07,06,07,21,15.20
2019,07,06,07,22,15.20
2019,07,06,07,23,15.20
2019,07,06,07,24,15.20
2019,07,06,07,25,15.20
2019,07,06,07,26,15.20
2019,07,06,07,27,15.20
2019,07,06,07,28,15.20
2019,07,06,07,29,15.20
2019,07,06,07,30,15.20
2019,07,06,07,31,15.20
2019,07,06,07,32,15.20
2019,07,06,07,33,15.20
2019,07,06,07,34,15.20
2019,07,06,07,35,15.20
2019,07,06,07,36,15.20
2019,07,06,07,37,15.20
2019,07,06,07,38,15.20
2019,07,06,07,39,15.20
2019,07,06,07,40,15.20
2019,07,06,07,41,15.20
2019,07,06,07,42,15.20
2019,07,06,07,43,15.20
2019,07,06,07,44,15.20
2019,07,06,07,45,15.20
2019,07,06,07,46,15.30
2019,07,06,07,47,15.30
2019,07,06,07,48,15.30
2019,07,06,07,49,15.30
2019,07,06,07,50,15.30
2019,07,06,07,51,15.30
2019,07,06,07,52,15.30
2019,07,06,07,53,15.30
2019,07,06,07,54,15.30
2019,07,06,07,55,15.30
2019,07,06,07,56,15.30
2019,07,06,07,57,15.30
2019,07,06,07,58,15.30
2019,07,06,07,59,15.40
2019,07,06,08,00,15.30
2019,07,06,08,01,15.40
2019,07,06,08,02,15.30
2019,07,06,08,03,15.30
2019,07,06,08,04,15.30
2019,07,06,08,05,15.30
2019,07,06,08,06,15.30
2019,07,06,08,07,15.30
2019,07,06,08,08,15.30
2019,07,06,08,09,15.30
2019,07,06,08,10,15.40
2019,07,06,08,11,15.40
2019,07,06,08,12,15.40
2019,07,06,08,13,15.40
2019,07,06,08,14,15.40
2019,07,06,08,15,15.40
2019,07,06,08,16,15.50
2019,07,06,08,17,15.50
2019,07,06,08,18,15.50
2019,07,06,08,19,15.50
2019,07,06,08,20,15.50
2019,07,06,08,21,15.50
2019,07,06,08,22,15.50
2019,07,06,08,23,15.50
2019,07,06,08,24,15.50
2019,07,06,08,25,15.60
2019,07,06,08,26,15.60
2019,07,06,08,27,15.60
2019,07,06,08,28,15.60
2019,07,06,08,29,15.60
2019,07,06,08,30,15.60
2019,07,06,08,31,15.60
2019,07,06,08,32,15.60
2019,07,06,08,33,15.60
2019,07,06,08,34,15.60
2019,07,06,08,35,15.60
2019,07,06,08,36,15.60
2019,07,06,08,37,15.60
2019,07,06,08,38,15.60
2019,07,06,08,39,15.60
2019,07,06,08,40,15.60
2019,07,06,08,41,15.60
2019,07,06,08,42,15.60
2019,07,06,08,43,15.60
2019,07,06,08,44,15.60
2019,07,06,08,45,15.60
2019,07,06,08,46,15.70
2019,07,06,08,47,15.70
2019,07,06,08,48,15.70
2019,07,06,08,49,15.70
2019,07,06,08,50,15.70
2019,07,06,08,51,15.70
2019,07,06,08,52,15.70
2019,07,06,08,53,15.70
2019,07,06,08,54,15.70
2019,07,06,08,55,15.80
2019,07,06,08,56,15.80
2019,07,06,08,57,15.80
2019,07,06,08,58,15.80
2019,07,06,08,59,15.80
2019,07,06,09,00,15.80
2019,07,06,09,01,15.80
2019,07,06,09,02,15.80
2019,07,06,09,03,15.80
2019,07,06,09,04,15.80
2019,07,06,09,05,15.80
2019,07,06,09,06,15.80
2019,07,06,09,07,15.80
2019,07,06,09,08,15.80
2019,07,06,09,09,15.80
2019,07,06,09,10,15.80
2019,07,06,09,11,15.80
2019,07,06,09,12,15.90
2019,07,06,09,13,15.90
2019,07,06,09,14,15.90
2019,07,06,09,15,15.90
2019,07,06,09,16,15.90
2019,07,06,09,17,15.90
2019,07,06,09,18,15.90
2019,07,06,09,19,15.90
2019,07,06,09,20,15.90
2019,07,06,09,21,15.90
2019,07,06,09,22,16.00
2019,07,06,09,23,16.00
2019,07,06,09,24,16.00
2019,07,06,09,25,16.00
2019,07,06,09,26,16.00
2019,07,06,09,27,16.00
2019,07,06,09,28,16.10
2019,07,06,09,29,16.10
2019,07,06,09,30,16.10
2019,07,06,09,31,16.10
2019,07,06,09,32,16.10
2019,07,06,09,33,16.20
2019,07,06,09,34,16.20
2019,07,06,09,35,16.20
2019,07,06,09,36,16.20
2019,07,06,09,37,16.20
2019,07,06,09,38,16.20
2019,07,06,09,39,16.20
2019,07,06,09,40,16.20
2019,07,06,09,41,16.20
2019,07,06,09,42,16.20
2019,07,06,09,43,16.20
2019,07,06,09,44,16.20
2019,07,06,09,45,16.30
2019,07,06,09,46,16.30
2019,07,06,09,47,16.30
2019,07,06,09,48,16.30
2019,07,06,09,49,16.30
2019,07,06,09,50,16.30
2019,07,06,09,51,16.30
2019,07,06,09,52,16.30
2019,07,06,09,53,16.30
2019,07,06,09,54,16.30
2019,07,06,09,55,16.30
2019,07,06,09,56,16.30
2019,07,06,09,57,16.30
2019,07,06,09,58,16.30
2019,07,06,09,59,16.30
2019,07,06,10,00,16.30
2019,07,06,10,01,16.30
2019,07,06,10,02,16.30
2019,07,06,10,03,16.40
2019,07,06,10,04,16.30
2019,07,06,10,05,16.30
2019,07,06,10,06,16.40
2019,07,06,10,07,16.40
2019,07,06,10,08,16.40
2019,07,06,10,09,16.40
2019,07,06,10,10,16.40
2019,07,06,10,11,16.40
2019,07,06,10,12,16.40
2019,07,06,10,13,16.40
2019,07,06,10,14,16.40
2019,07,06,10,15,16.40
2019,07,06,10,16,16.40
2019,07,06,10,17,16.40
2019,07,06,10,18,16.40
2019,07,06,10,19,16.50
2019,07,06,10,20,16.50
2019,07,06,10,21,16.60
2019,07,06,10,22,16.70
2019,07,06,10,23,16.70
2019,07,06,10,24,16.70
2019,07,06,10,25,16.80
2019,07,06,10,26,16.70
2019,07,06,10,27,16.70
2019,07,06,10,28,16.70
2019,07,06,10,29,16.70
2019,07,06,10,30,16.70
2019,07,06,10,31,16.70
2019,07,06,10,32,16.70
2019,07,06,10,33,16.70
2019,07,06,10,34,16.70
2019,07,06,10,35,16.70
2019,07,06,10,36,16.70
2019,07,06,10,37,16.80
2019,07,06,10,38,16.80
2019,07,06,10,39,16.80
2019,07,06,10,40,16.80
2019,07,06,10,41,16.90
2019,07,06,10,42,16.90
2019,07,06,10,43,16.90
2019,07,06,10,44,16.90
2019,07,06,10,45,16.90
2019,07,06,10,46,17.00
2019,07,06,10,47,17.00
2019,07,06,10,48,17.00
2019,07,06,10,49,17.00
2019,07,06,10,50,16.90
2019,07,06,10,51,16.90
2019,07,06,10,52,16.90
2019,07,06,10,53,16.90
2019,07,06,10,54,16.90
2019,07,06,10,55,16.90
2019,07,06,10,56,16.90
2019,07,06,10,57,16.90
2019,07,06,10,58,16.90
2019,07,06,10,59,16.90
2019,07,06,11,00,16.90
2019,07,06,11,01,17.00
2019,07,06,11,02,17.00
2019,07,06,11,03,17.00
2019,07,06,11,04,17.00
2019,07,06,11,05,17.00
2019,07,06,11,06,17.00
2019,07,06,11,07,17.00
2019,07,06,11,08,16.90
2019,07,06,11,09,16.90
2019,07,06,11,10,16.80
2019,07,06,11,11,16.80
2019,07,06,11,12,16.70
2019,07,06,11,13,16.70
2019,07,06,11,14,16.70
2019,07,06,11,15,16.70
2019,07,06,11,16,16.70
2019,07,06,11,17,16.70
2019,07,06,11,18,16.70
2019,07,06,11,19,16.70
2019,07,06,11,20,16.70
2019,07,06,11,21,16.60
2019,07,06,11,22,16.70
2019,07,06,11,23,16.60
2019,07,06,11,24,16.60
2019,07,06,11,25,16.60
2019,07,06,11,26,16.60
2019,07,06,11,27,16.60
2019,07,06,11,28,16.60
2019,07,06,11,29,16.60
2019,07,06,11,30,16.50
2019,07,06,11,31,16.50
2019,07,06,11,32,16.60
2019,07,06,11,33,16.60
2019,07,06,11,34,16.70
2019,07,06,11,35,16.70
2019,07,06,11,36,16.60
2019,07,06,11,37,16.60
2019,07,06,11,38,16.60
2019,07,06,11,39,16.70
2019,07,06,11,40,16.70
2019,07,06,11,41,16.70
2019,07,06,11,42,16.70
2019,07,06,11,43,16.70
2019,07,06,11,44,16.70
2019,07,06,11,45,16.70
2019,07,06,11,46,16.70
2019,07,06,11,47,16.70
2019,07,06,11,48,16.70
2019,07,06,11,49,16.70
2019,07,06,11,50,16.80
2019,07,06,11,51,16.80
2019,07,06,11,52,16.80
2019,07,06,11,53,16.80
2019,07,06,11,54,16.80
2019,07,06,11,55,16.80
2019,07,06,11,56,16.80
2019,07,06,11,57,16.80
2019,07,06,11,58,16.80
2019,07,06,11,59,16.80
2019,07,06,12,00,16.90
2019,07,06,12,01,16.90
2019,07,06,12,02,16.90
2019,07,06,12,03,17.00
2019,07,06,12,04,17.00
2019,07,06,12,05,17.00
2019,07,06,12,06,17.10
2019,07,06,12,07,17.10
2019,07,06,12,08,17.10
2019,07,06,12,09,17.10
2019,07,06,12,10,17.20
2019,07,06,12,11,17.30
2019,07,06,12,12,17.30
2019,07,06,12,13,17.30
2019,07,06,12,14,17.40
2019,07,06,12,15,17.40
2019,07,06,12,16,17.60
2019,07,06,12,17,17.60
2019,07,06,12,18,17.70
2019,07,06,12,19,17.70
2019,07,06,12,20,17.70
2019,07,06,12,21,17.70
2019,07,06,12,22,17.70
2019,07,06,12,23,17.70
2019,07,06,12,24,17.70
2019,07,06,12,25,17.70
2019,07,06,12,26,17.70
2019,07,06,12,27,17.70
2019,07,06,12,28,17.70
2019,07,06,12,29,17.70
2019,07,06,12,30,17.80
2019,07,06,12,31,17.80
2019,07,06,12,32,17.80
2019,07,06,12,33,17.80
2019,07,06,12,34,17.80
2019,07,06,12,35,17.80
2019,07,06,12,36,17.70
2019,07,06,12,37,17.70
2019,07,06,12,38,17.80
2019,07,06,12,39,17.80
2019,07,06,12,40,17.80
2019,07,06,12,41,17.80
2019,07,06,12,42,17.80
2019,07,06,12,43,17.80
2019,07,06,12,44,17.80
2019,07,06,12,45,17.80
2019,07,06,12,46,18.00
2019,07,06,12,47,18.00
2019,07,06,12,48,18.10
2019,07,06,12,49,18.20
2019,07,06,12,50,18.20
2019,07,06,12,51,18.30
2019,07,06,12,52,18.40
2019,07,06,12,53,18.60
2019,07,06,12,54,18.70
2019,07,06,12,55,18.70
2019,07,06,12,56,18.70
2019,07,06,12,57,18.90
2019,07,06,12,58,19.00
2019,07,06,12,59,19.00
2019,07,06,13,00,19.00
2019,07,06,13,01,19.10
2019,07,06,13,02,19.10
2019,07,06,13,03,19.10
2019,07,06,13,04,19.10
2019,07,06,13,05,19.10
2019,07,06,13,06,19.10
2019,07,06,13,07,19.10
2019,07,06,13,08,19.10
2019,07,06,13,09,19.00
2019,07,06,13,10,18.90
2019,07,06,13,11,18.90
2019,07,06,13,12,18.80
2019,07,06,13,13,18.80
2019,07,06,13,14,18.70
2019,07,06,13,15,18.70
2019,07,06,13,16,18.70
2019,07,06,13,17,18.70
2019,07,06,13,18,18.70
2019,07,06,13,19,18.70
2019,07,06,13,20,18.70
2019,07,06,13,21,18.70
2019,07,06,13,22,18.70
2019,07,06,13,23,18.60
2019,07,06,13,24,18.60
2019,07,06,13,25,18.60
2019,07,06,13,26,18.50
2019,07,06,13,27,18.40
2019,07,06,13,28,18.40
2019,07,06,13,29,18.40
2019,07,06,13,30,18.30
2019,07,06,13,31,18.30
2019,07,06,13,32,18.30
2019,07,06,13,33,18.30
2019,07,06,13,34,18.30
2019,07,06,13,35,18.20
2019,07,06,13,36,18.10
2019,07,06,13,37,18.10
2019,07,06,13,38,18.00
2019,07,06,13,39,18.00
2019,07,06,13,40,17.90
2019,07,06,13,41,17.90
2019,07,06,13,42,17.80
2019,07,06,13,43,17.80
2019,07,06,13,44,17.80
2019,07,06,13,45,17.80
2019,07,06,13,46,17.80
2019,07,06,13,47,17.80
2019,07,06,13,48,17.80
2019,07,06,13,49,17.80
2019,07,06,13,50,17.80
2019,07,06,13,51,17.80
2019,07,06,13,52,17.80
2019,07,06,13,53,17.80
2019,07,06,13,54,17.80
2019,07,06,13,55,17.90
2019,07,06,13,56,17.80
2019,07,06,13,57,17.90
2019,07,06,13,58,17.90
2019,07,06,13,59,17.90
2019,07,06,14,00,17.90
2019,07,06,14,01,17.90
2019,07,06,14,02,17.90
2019,07,06,14,03,18.00
2019,07,06,14,04,18.00
2019,07,06,14,05,18.00
2019,07,06,14,06,18.10
2019,07,06,14,07,18.10
2019,07,06,14,08,18.10
2019,07,06,14,09,18.10
2019,07,06,14,10,18.10
2019,07,06,14,11,18.10
2019,07,06,14,12,18.10
2019,07,06,14,13,18.10
2019,07,06,14,14,18.10
2019,07,06,14,15,18.10
2019,07,06,14,16,18.10
2019,07,06,14,17,18.10
2019,07,06,14,18,18.10
2019,07,06,14,19,18.10
2019,07,06,14,20,18.10
2019,07,06,14,21,18.10
2019,07,06,14,22,18.10
2019,07,06,14,23,18.10
2019,07,06,14,24,18.10
2019,07,06,14,25,18.10
2019,07,06,14,26,18.10
2019,07,06,14,27,18.00
2019,07,06,14,28,18.00
2019,07,06,14,29,18.00
2019,07,06,14,30,18.00
2019,07,06,14,31,18.00
2019,07,06,14,32,18.00
2019,07,06,14,33,18.10
2019,07,06,14,34,18.00
2019,07,06,14,35,18.00
2019,07,06,14,36,18.10
2019,07,06,14,37,18.10
2019,07,06,14,38,18.10
2019,07,06,14,39,18.10
2019,07,06,14,40,18.20
2019,07,06,14,41,18.20
2019,07,06,14,42,18.20
2019,07,06,14,43,18.20
2019,07,06,14,44,18.20
2019,07,06,14,45,18.20
2019,07,06,14,46,18.30
2019,07,06,14,47,18.30
2019,07,06,14,48,18.30
2019,07,06,14,49,18.40
2019,07,06,14,50,18.40
2019,07,06,14,51,18.40
2019,07,06,14,52,18.40
2019,07,06,14,53,18.40
2019,07,06,14,54,18.50
2019,07,06,14,55,18.60
2019,07,06,14,56,18.60
2019,07,06,14,57,18.60
2019,07,06,14,58,18.70
2019,07,06,14,59,18.70
2019,07,06,15,00,18.70
2019,07,06,15,01,18.80
2019,07,06,15,02,18.80
2019,07,06,15,03,18.80
2019,07,06,15,04,18.90
2019,07,06,15,05,18.90
2019,07,06,15,06,18.90
2019,07,06,15,07,18.90
2019,07,06,15,08,18.90
2019,07,06,15,09,18.90
2019,07,06,15,10,18.90
2019,07,06,15,11,18.90
2019,07,06,15,12,18.90
2019,07,06,15,13,18.90
2019,07,06,15,14,18.90
2019,07,06,15,15,18.90
2019,07,06,15,16,18.90
2019,07,06,15,17,18.90
2019,07,06,15,18,18.90
2019,07,06,15,19,18.90
2019,07,06,15,20,18.90
2019,07,06,15,21,18.80
2019,07,06,15,22,18.80
2019,07,06,15,23,18.70
2019,07,06,15,24,18.70
2019,07,06,15,25,18.70
2019,07,06,15,26,18.70
2019,07,06,15,27,18.70
2019,07,06,15,28,18.70
2019,07,06,15,29,18.70
2019,07,06,15,30,18.70
2019,07,06,15,31,18.80
2019,07,06,15,32,18.70
2019,07,06,15,33,18.70
2019,07,06,15,34,18.60
2019,07,06,15,35,18.60
2019,07,06,15,36,18.60
2019,07,06,15,37,18.60
2019,07,06,15,38,18.60
2019,07,06,15,39,18.60
2019,07,06,15,40,18.60
2019,07,06,15,41,18.60
2019,07,06,15,42,18.60
2019,07,06,15,43,18.60
2019,07,06,15,44,18.60
2019,07,06,15,45,18.60
2019,07,06,15,46,18.70
2019,07,06,15,47,18.70
2019,07,06,15,48,18.70
2019,07,06,15,49,18.70
2019,07,06,15,50,18.70
2019,07,06,15,51,18.70
2019,07,06,15,52,18.80
2019,07,06,15,53,18.80
2019,07,06,15,54,18.90
2019,07,06,15,55,18.90
2019,07,06,15,56,18.90
2019,07,06,15,57,18.90
2019,07,06,15,58,18.90
2019,07,06,15,59,18.80
2019,07,06,16,00,18.80
2019,07,06,16,01,18.80
2019,07,06,16,02,18.80
2019,07,06,16,03,18.80
2019,07,06,16,04,18.80
2019,07,06,16,05,18.80
2019,07,06,16,06,18.90
2019,07,06,16,07,18.80
2019,07,06,16,08,18.90
2019,07,06,16,09,18.90
2019,07,06,16,10,18.90
2019,07,06,16,11,18.90
2019,07,06,16,12,18.90
2019,07,06,16,13,18.90
2019,07,06,16,14,18.90
2019,07,06,16,15,19.00
2019,07,06,16,16,19.00
2019,07,06,16,17,19.00
2019,07,06,16,18,19.00
2019,07,06,16,19,19.00
2019,07,06,16,20,19.00
2019,07,06,16,21,19.10
2019,07,06,16,22,19.10
2019,07,06,16,23,19.10
2019,07,06,16,24,19.10
2019,07,06,16,25,19.10
2019,07,06,16,26,19.10
2019,07,06,16,27,19.20
2019,07,06,16,28,19.20
2019,07,06,16,29,19.20
2019,07,06,16,30,19.30
2019,07,06,16,31,19.30
2019,07,06,16,32,19.30
2019,07,06,16,33,19.30
2019,07,06,16,34,19.30
2019,07,06,16,35,19.30
2019,07,06,16,36,19.30
2019,07,06,16,37,19.30
2019,07,06,16,38,19.30
2019,07,06,16,39,19.30
2019,07,06,16,40,19.30
2019,07,06,16,41,19.30
2019,07,06,16,42,19.20
2019,07,06,16,43,19.20
2019,07,06,16,44,19.20
2019,07,06,16,45,19.30
2019,07,06,16,46,19.30
2019,07,06,16,47,19.30
2019,07,06,16,48,19.40
2019,07,06,16,49,19.40
2019,07,06,16,50,19.50
2019,07,06,16,51,19.50
2019,07,06,16,52,19.50
2019,07,06,16,53,19.60
2019,07,06,16,54,19.60
2019,07,06,16,55,19.60
2019,07,06,16,56,19.50
2019,07,06,16,57,19.50
2019,07,06,16,58,19.50
2019,07,06,16,59,19.40
2019,07,06,17,00,19.40
2019,07,06,17,01,19.40
2019,07,06,17,02,19.40
2019,07,06,17,03,19.40
2019,07,06,17,04,19.40
2019,07,06,17,05,19.40
2019,07,06,17,06,19.40
2019,07,06,17,07,19.40
2019,07,06,17,08,19.40
2019,07,06,17,09,19.40
2019,07,06,17,10,19.50
2019,07,06,17,11,19.50
2019,07,06,17,12,19.40
2019,07,06,17,13,19.40
2019,07,06,17,14,19.40
2019,07,06,17,15,19.30
2019,07,06,17,16,19.30
2019,07,06,17,17,19.30
2019,07,06,17,18,19.30
2019,07,06,17,19,19.30